Regional Weather Roundup
Issued by NWS Little Rock, AR

Home | Current Version | Previous Version | Text Only | Print | Product List | Glossary Off
Versions: 1 2 3 4 5 6 7 8 9 10 11 12 13 14 15 16 17 18 19 20 21 22 23 24 25 26 27 28 29 30 31 32 33 34 35 36 37 38 39 40 41 42 43 44 45 46 47 48 49 50

531
ASUS44 KLZK 271805
RWRLZK

WEATHER ROUNDUP FOR ARKANSAS
NATIONAL WEATHER SERVICE LITTLE ROCK AR
100 PM CDT SAT AUG 27 2016

NOTE: "FAIR" INDICATES FEW OR NO CLOUDS BELOW 12,000 FEET WITH NO
SIGNIFICANT WEATHER AND/OR OBSTRUCTIONS TO VISIBILITY.

ARZ001-003-010-029-271900-
NORTHWEST ARKANSAS

CITY           SKY/WX    TMP DP  RH WIND       PRES   REMARKS
FAYETTEVILLE   PTSUNNY   83  71  67 NW6       30.07F HX  87
6HR MIN TEMP:  66; 6HR MAX TEMP:  85;

FORT SMITH     LGT RAIN  80  74  81 SE6       30.03F HX  85
6HR MIN TEMP:  74; 6HR MAX TEMP:  85; 6HR PCP:  0.04;

HARRISON       PTSUNNY   82  71  69 E7        30.08F HX  86
6HR MIN TEMP:  69; 6HR MAX TEMP:  86;

BENTONVILLE    MOSUNNY   84  66  54 CALM      30.09F HX  86
6HR MIN TEMP:  70; 6HR MAX TEMP:  84;

ROGERS         MOSUNNY   83  69  62 W3        30.08F HX  86
6HR MIN TEMP:  70; 6HR MAX TEMP:  85;

SILOAM SPGS    MOSUNNY   84  64  51 W3          N/A  HX  86
HIGHFILL       MOSUNNY   86  70  58 CALM      30.07F HX  90
6HR MIN TEMP:  69; 6HR MAX TEMP:  87;

SPRINGDALE     MOSUNNY   84  68  58 CALM      30.09F HX  87
$$

ARZ004-005-016-271900-
NORTH CENTRAL ARKANSAS

CITY           SKY/WX    TMP DP  RH WIND       PRES   REMARKS
BATESVILLE     PTSUNNY   88  73  62 E6        30.06F HX  96
6HR MIN TEMP:  70; 6HR MAX TEMP:  88;

FLIPPIN        MOSUNNY   86  72  62 NE3       30.04F HX  92
6HR MIN TEMP:  72; 6HR MAX TEMP:  86;

MTN HOME       PTSUNNY   86  74  67 CALM      30.06F HX  94
6HR MIN TEMP:  71; 6HR MAX TEMP:  86;

$$

ARZ040-041-271900-
WEST CENTRAL ARKANSAS

CITY           SKY/WX    TMP DP  RH WIND       PRES   REMARKS
MENA           MOSUNNY   88  75  66 NE7       30.06F HX  97
$$

ARZ009-017-025-026-028-271900-
NORTHEAST ARKANSAS

CITY           SKY/WX    TMP DP  RH WIND       PRES   REMARKS
CORNING          N/A     86  77  74 CALM      30.07F HX  97
JONESBORO      MOSUNNY   88  72  58 E6        30.05F HX  94
6HR MIN TEMP:  72; 6HR MAX TEMP:  89;

NEWPORT        CLOUDY    87  74  64 VRB3      30.05F HX  95
6HR MIN TEMP:  72; 6HR MAX TEMP:  88;

WALNUT RIDGE   SUNNY     88  72  58 E6        30.05F HX  94
6HR MIN TEMP:  72; 6HR MAX TEMP:  88;

BLYTHEVILLE    SUNNY     87  74  64 CALM      30.07F HX  95
6HR MIN TEMP:  70; 6HR MAX TEMP:  87;

$$

ARZ022-023-033-042-044-271900-
CENTRAL ARKANSAS

CITY           SKY/WX    TMP DP  RH WIND       PRES   REMARKS
LITTLE ROCK    MOSUNNY   90  74  59 N6        30.04F HX  99
6HR MIN TEMP:  75; 6HR MAX TEMP:  90;

JACKSONVILLE   MOSUNNY   89  76  67 CALM      30.04F HX 100
6HR MIN TEMP:  73; 6HR MAX TEMP:  89; 6HR PCP: TRACE;

SEARCY         MOSUNNY   89  77  67 E3        30.06F HX 101
6HR MIN TEMP:  73; 6HR MAX TEMP:  89;

HOT SPRINGS    MOSUNNY   88  72  58 S5        30.04F HX  94
6HR MIN TEMP:  73; 6HR MAX TEMP:  88;

RUSSELLVILLE   MOSUNNY   86  76  71 CALM      30.03F HX  96
6HR MIN TEMP:  74; 6HR MAX TEMP:  87;

$$

ARZ036-271900-
EAST ARKANSAS

CITY           SKY/WX    TMP DP  RH WIND       PRES   REMARKS
WEST MEMPHIS   SUNNY     85  75  72 W3        30.05F HX  93
6HR MIN TEMP:  69; 6HR MAX TEMP:  86;

$$

ARZ050-053-066-070-073-271900-
SOUTHWEST ARKANSAS

CITY           SKY/WX    TMP DP  RH WIND       PRES   REMARKS
ARKADELPHIA    FAIR      87  75  67 E3        30.03F HX  96
6HR MIN TEMP:  73; 6HR MAX TEMP:  87;

TEXARKANA      SUNNY     87  70  56 MISG      30.02F HX  92
6HR MIN TEMP:  72; 6HR MAX TEMP:  89;

EL DORADO      PTSUNNY   87  72  60 E6        30.03F HX  93
6HR MIN TEMP:  71; 6HR MAX TEMP:  89;

DE QUEEN       MOSUNNY   88  74  63 VRB5      30.00F HX  96
6HR MIN TEMP:  72; 6HR MAX TEMP:  89;

$$

ARZ056-057-069-271900-
SOUTHEAST ARKANSAS

CITY           SKY/WX    TMP DP  RH WIND       PRES   REMARKS
PINE BLUFF     CLOUDY    87  73  62 N5        30.04F HX  94
6HR MIN TEMP:  73; 6HR MAX TEMP:  88;

STUTTGART      MOSUNNY   86  75  70 W3        30.05F HX  95
6HR MIN TEMP:  73; 6HR MAX TEMP:  88;

MONTICELLO     SUNNY     92  73  53 VRB3      30.03F HX 100
6HR MIN TEMP:  76; 6HR MAX TEMP:  92;


$$






USA.gov is the U.S. government's official web portal to all federal, state and local government web resources and services.